Regional Weather Roundup
Issued by NWS

Home | Current Version | Previous Version | Text Only | Print | Product List | Glossary On
Versions: 1 2 3 4 5 6 7 8 9 10 11 12 13 14 15 16 17 18 19 20 21 22 23 24 25 26 27 28 29 30 31 32 33 34 35 36 37 38 39 40 41 42 43 44 45 46 47 48 49 50
406
ASUS42 KKEY 262310
RWRKEY

FLORIDA REGIONAL WEATHER ROUNDUP FOR THE FLORIDA KEYS
NATIONAL WEATHER SERVICE KEY WEST FLORIDA
700 PM EDT SUN MAR 26 2017

...SOUTH FLORIDA AND THE KEYS...

CITY           SKY/WX    TMP DP  RH WIND       PRES   REMARKS
FORT MYERS     CLEAR     82  59  45 SE7       30.04S
SW REGIONAL AP MOCLDY    80  59  48 SE9       30.05R
NAPLES         MOCLDY    77  67  71 W7        30.06R
MIAMI          MOCLDY    77  62  59 E13       30.07R
WEST KENDALL   CLOUDY    76  62  62 E14       30.06S
HOMESTEAD      PTCLDY    75  65  70 E8        30.06R
MARATHON       CLEAR     78  66  66 E7        30.04R
BOCA CHICA NAS PTCLDY    77  63  61 E13       30.04R
KEY WEST INTL  CLEAR     78  65  63 E12       30.05R

...INTERNATIONAL WEATHER...

CITY           SKY/WX    TMP DP  RH WIND       PRES   REMARKS
NASSAU BAHAMAS PTCLDY    79  54  41 NE8       30.06S
CANCUN MEXICO  PTSUNNY   81  70  69 SE12      29.97S
COZUMEL MEXICO MOSUNNY   82  66  57 SE9       29.95R

ADJACENT COASTAL WATERS...

STATION/POSITION TIME  SKY/WX   TEMP    WIND        PRES    WAVE
                                AIR SEA DIR/SP/G            HT/PER
                 (UTC)          (F)     (DEG/KT/KT) (MB)    (FT/S)
PULASKI SHOAL LI 2300            74      80/ 13/ 14 1017.4R
SAND KEY         2250            76     100/ 14/ 15 1017.8R
LONG KEY         2200            75 76  100/ 13/ 15 1017.4F
MOLASSES REEF    2300            75 77   90/ 16/ 18 1017.9R
FOWEY ROCKS      2300            74 76   70/ 14/ 16 1018.6R
Buoy 42097       2300                                 N/A     2/ 4

$$




USA.gov is the U.S. government's official web portal to all federal, state and local government web resources and services.